FLOCK 4BE-3 (60561 NORAD) Tracking and Keplerian Element Data

This shows tracking and keplerian element data for the satellite.

Feedback or suggestion? Click here.




ElementValue
Catalog60561
NameFLOCK 4BE-3
Epoch Orbit864
Epoch Day286.74136061
Epoch Year2024
RAAN1.4348
Inclination97.4332
Eccentricity0.0005487
Argument of Perigee306.6845
Mean Anonmoly53.3885
Mean Motion15.20318852
Decay Rate0.00019532
L11 60561U 24149CX 24286.74136061 .00019532 00000+0 89966-3 0 9998
L22 60561 97.4332 1.4348 0005487 306.6845 53.3885 15.20318852 8649



Live tracking and technical data element details for FLOCK 4BE-3 (NORAD 60561). FLOCK 4BE-3 can be tracked NOW for your location showing map with azimuth and elevation plus other details from your city location.







IsCatalogInMostPopularTable: catalog: 60561, numindb: 8
Update: records affected: 1



GetName: 60561 FLOCK 4BE-3

Hit Count: updated at: Tue, 03 Dec 2024 02:44:21 GMT